Change the Weather History Date:

Friday, March 30, 2012

  Actual Average Record
Temperature  
Mean Temperature 28 °F -  
Max Temperature 35 °F 38 °F 72 °F (1998)
Min Temperature 19 °F 20 °F -2 °F (2008)
Degree Days  
Heating Degree Days 37    
Moisture  
Dew Point 17 °F    
Average Humidity 65    
Maximum Humidity 85    
Minimum Humidity 40    
Precipitation  
Precipitation 0.00 in - - ()
Sea Level Pressure  
Sea Level Pressure 29.96 in    
Wind  
Wind Speed 6 mph (NNW)    
Max Wind Speed 13 mph    
Max Gust Speed 25 mph    
Visibility 9 miles    
Events Snow    
Averages and records for this station are not official NWS values.
T = Trace of Precipitation, MM = Missing Value Source: NWS Daily Summary

Daily Weather History Graph

Daily Weather History Graph

Search for Another Location

Airport or City:

Trip Planner

Search our weather history database for the weather conditions in past years. The results will help you decide how hot, cold, wet, or windy it might be!

Date:

Astronomy

Mar. 30, 2012 Rise Set
Actual Time 6:28 AM EDT 7:10 PM EDT
Civil Twilight 5:59 AM EDT 7:39 PM EDT
Nautical Twilight 5:24 AM EDT 8:14 PM EDT
Astronomical Twilight 4:48 AM EDT 8:51 PM EDT
Moon 11:20 AM EDT (3/30) 1:55 AM EDT (3/30)
Length of Visible Light 13h 40m
Length of Day
12h 41m
Waxing Crescent, 49% of the Moon is Illuminated
Mar 30
Waxing Crescent
Mar 30
First Quarter
Apr 6
Full
Apr 13
Last Quarter
Apr 21
New

Hourly Weather History & Observations

Time (EDT) Temp. Windchill Dew Point Humidity Pressure Visibility Wind Dir Wind Speed Gust Speed Precip Events Conditions
12:52 AM 30.0 °F 25.2 °F 23.0 °F 75% 29.88 in 10.0 mi Variable 4.6 mph - N/A   Overcast
1:07 AM 30.2 °F 26.7 °F 24.8 °F 80% 29.84 in 6.0 mi Variable 3.5 mph - 0.00 in Snow Light Snow
1:44 AM 30.2 °F 26.7 °F 24.8 °F 80% 29.84 in 6.0 mi Variable 3.5 mph - 0.00 in Snow Light Snow
1:52 AM 30.0 °F 26.5 °F 23.0 °F 75% 29.88 in 7.0 mi NNW 3.5 mph - 0.00 in Snow Light Snow
2:52 AM 28.9 °F 23.9 °F 19.9 °F 69% 29.88 in 10.0 mi Variable 4.6 mph - 0.00 in   Overcast
3:01 AM 28.4 °F 24.6 °F 21.2 °F 74% 29.84 in 10.0 mi Variable 3.5 mph - N/A   Overcast
3:24 AM 28.4 °F 20.4 °F 19.4 °F 69% 29.85 in 9.0 mi NW 8.1 mph - 0.00 in   Overcast
3:52 AM 28.0 °F 20.0 °F 17.1 °F 63% 29.90 in 10.0 mi NW 8.1 mph 24.2 mph 0.00 in   Overcast
4:52 AM 26.1 °F 17.6 °F 17.1 °F 69% 29.91 in 10.0 mi NNW 8.1 mph - N/A   Mostly Cloudy
5:52 AM 25.0 °F 18.1 °F 18.0 °F 75% 29.92 in 10.0 mi NW 5.8 mph - 0.00 in   Mostly Cloudy
6:52 AM 25.0 °F 14.8 °F 10.9 °F 55% 29.94 in 10.0 mi NW 10.4 mph 25.3 mph N/A   Partly Cloudy
7:43 AM 24.8 °F 14.6 °F 15.8 °F 69% 29.91 in 1.8 mi NNW 10.4 mph - 0.00 in Snow Light Snow
7:55 AM 24.8 °F 16.1 °F 19.4 °F 80% 29.92 in 2.0 mi North 8.1 mph - 0.00 in Snow Light Snow
8:03 AM 24.8 °F 16.1 °F 17.6 °F 74% 29.93 in 8.0 mi North 8.1 mph - 0.00 in Snow Light Snow
8:52 AM 25.0 °F 19.3 °F 16.0 °F 69% 30.01 in 10.0 mi Variable 4.6 mph - 0.00 in   Overcast
9:52 AM 28.0 °F 17.5 °F 15.1 °F 58% 30.01 in 10.0 mi NNW 12.7 mph 18.4 mph N/A   Mostly Cloudy
10:52 AM 30.9 °F 24.3 °F 16.0 °F 54% 30.02 in 10.0 mi Variable 6.9 mph 17.3 mph N/A   Overcast
11:52 AM 30.0 °F 21.7 °F 15.1 °F 54% 30.02 in 10.0 mi NW 9.2 mph 16.1 mph N/A   Overcast
12:52 PM 32.0 °F 24.2 °F 15.1 °F 50% 30.02 in 10.0 mi WNW 9.2 mph - N/A   Overcast
2:52 PM 33.1 °F 23.9 °F 14.0 °F 46% 29.99 in 10.0 mi North 12.7 mph 23.0 mph N/A   Overcast
3:52 PM 34.0 °F 25.5 °F 12.9 °F 42% 29.98 in 10.0 mi NNW 11.5 mph - N/A   Scattered Clouds
4:52 PM 35.1 °F 26.4 °F 12.9 °F 40% 29.99 in 10.0 mi NNW 12.7 mph 20.7 mph N/A   Scattered Clouds
5:52 PM 34.0 °F 26.6 °F 14.0 °F 44% 30.01 in 10.0 mi NNW 9.2 mph - N/A   Clear
6:52 PM 32.0 °F 25.6 °F 14.0 °F 48% 30.02 in 10.0 mi North 6.9 mph - N/A   Clear
7:52 PM 28.9 °F 21.9 °F 15.1 °F 56% 30.03 in 10.0 mi NNW 6.9 mph - N/A   Clear
8:52 PM 24.1 °F - 17.1 °F 75% 30.06 in 10.0 mi Calm Calm - N/A   Clear
9:52 PM 24.1 °F - 17.1 °F 75% 30.06 in 10.0 mi Calm Calm - N/A   Clear
10:52 PM 21.9 °F 17.2 °F 17.1 °F 82% 30.06 in 10.0 mi NNW 3.5 mph - N/A   Clear
11:52 PM 19.0 °F - 15.1 °F 85% 30.06 in 10.0 mi Calm Calm - N/A   Clear